Sarasota, FL

7:37 PM EST on February 19, 2018 (GMT -0500)
Sarasota-bradenton

Weather History for KSRQ - September, 2014

Change the Weather History Date:

Wednesday, September 3, 2014

  Actual Average Record
Temperature  
Mean Temperature 86 °F 82 °F  
Max Temperature 96 °F 90 °F 95 °F (1990)
Min Temperature 80 °F 75 °F 65 °F (1984)
Degree Days  
Heating Degree Days 0 0  
Month to date heating degree days 0 0  
Since 1 July heating degree days 0 0  
Cooling Degree Days 22 17  
Month to date cooling degree days 44 51  
Year to date cooling degree days 2590 2348  
Growing Degree Days 36 (Base 50)    
Moisture  
Dew Point 72 °F    
Average Humidity 66    
Maximum Humidity 79    
Minimum Humidity 42    
Precipitation  
Precipitation 0.35 in 0.35 in 2.40 in (1940)
Month to date precipitation 1.18 1.03  
Year to date precipitation 32.66 39.36  
Sea Level Pressure  
Sea Level Pressure 30.00 in    
Wind  
Wind Speed 6 mph (ESE)    
Max Wind Speed 13 mph    
Max Gust Speed 16 mph    
Visibility 9 miles    
Events Rain , Thunderstorm    
T = Trace of Precipitation, MM = Missing Value Source: NWS Daily Summary

Daily Weather History Graph

Daily Weather History Graph

Search for Another Location

Airport or City:

Trip Planner

Search our weather history database for the weather conditions in past years. The results will help you decide how hot, cold, wet, or windy it might be!

Date:

Astronomy

Sep. 03, 2014 Rise Set
Actual Time 7:10 AM EDT 7:48 PM EDT
Civil Twilight 6:46 AM EDT 8:12 PM EDT
Nautical Twilight 6:18 AM EDT 8:39 PM EDT
Astronomical Twilight 5:50 AM EDT 9:07 PM EDT
Moon 3:12 PM EDT (9/3) 1:19 AM EDT (9/3)
Length of Visible Light 13h 25m
Length of Day
12h 38m
Waxing Gibbous, 63% of the Moon is Illuminated
Sep 3
Waxing Gibbous
Sep 8
Full
Sep 15
Last Quarter
Sep 24
New
Oct 1
First Quarter

Hourly Weather History & Observations

Time (EDT) Temp. Heat Index Dew Point Humidity Pressure Visibility Wind Dir Wind Speed Gust Speed Precip Events Conditions
12:53 AM 82.0 °F 87.9 °F 73.9 °F 76% 30.01 in 10.0 mi Calm Calm - N/A   Unknown
1:53 AM 81.0 °F 86.2 °F 73.9 °F 79% 30.00 in 10.0 mi East 3.5 mph - N/A   Clear
2:53 AM 81.0 °F 85.8 °F 73.0 °F 77% 29.99 in 10.0 mi SE 5.8 mph - N/A   Clear
3:53 AM 80.1 °F 83.8 °F 72.0 °F 76% 29.97 in 10.0 mi East 3.5 mph - N/A   Clear
4:53 AM 80.1 °F 83.8 °F 72.0 °F 76% 29.98 in 10.0 mi East 3.5 mph - N/A   Clear
5:53 AM 80.1 °F 83.8 °F 72.0 °F 76% 29.99 in 10.0 mi East 5.8 mph - N/A   Unknown
6:53 AM 80.1 °F 83.6 °F 71.1 °F 74% 29.99 in 10.0 mi ENE 4.6 mph - N/A   Clear
7:53 AM 81.0 °F 85.2 °F 72.0 °F 74% 30.01 in 10.0 mi East 4.6 mph - N/A   Clear
8:53 AM 84.9 °F 90.7 °F 72.0 °F 65% 30.02 in 10.0 mi ESE 6.9 mph - N/A   Clear
9:53 AM 88.0 °F 95.6 °F 73.0 °F 61% 30.03 in 10.0 mi SE 5.8 mph - N/A   Clear
10:53 AM 91.0 °F 99.3 °F 73.0 °F 55% 30.04 in 10.0 mi SE 5.8 mph - N/A   Clear
11:53 AM 93.0 °F 99.0 °F 70.0 °F 47% 30.03 in 10.0 mi ESE 9.2 mph - N/A   Clear
12:53 PM 93.9 °F 100.3 °F 70.0 °F 46% 30.01 in 10.0 mi East 5.8 mph - N/A   Partly Cloudy
1:53 PM 96.1 °F 102.9 °F 70.0 °F 43% 29.99 in 10.0 mi SE 8.1 mph - N/A   Partly Cloudy
2:53 PM - - - N/A% 29.99 in 10.0 mi ESE 9.2 mph - N/A   Scattered Clouds
3:53 PM - - - N/A% 29.98 in 10.0 mi WNW 5.8 mph 16.1 mph N/A   Mostly Cloudy
4:53 PM - - - N/A% 29.96 in 10.0 mi West 10.4 mph - N/A   Clear
5:53 PM - - - N/A% 29.96 in 10.0 mi West 12.7 mph - N/A   Clear
6:14 PM - - - N/A% 29.96 in 10.0 mi West 10.4 mph - N/A Thunderstorm Partly Cloudy
6:32 PM - - - N/A% 29.95 in 10.0 mi West 10.4 mph - N/A Thunderstorm Thunderstorm
6:53 PM - - - N/A% 29.99 in 10.0 mi ESE 21.9 mph 26.5 mph N/A Thunderstorm Thunderstorm
7:11 PM - - - N/A% 29.99 in 2.0 mi NE 9.2 mph - 0.25 in Rain , Thunderstorm Heavy Thunderstorms and Rain
7:18 PM - - - N/A% 29.99 in 1.0 mi Calm Calm - 0.32 in Rain , Thunderstorm Heavy Thunderstorms and Rain
7:23 PM - - - N/A% 29.98 in 3.0 mi SE 3.5 mph - 0.34 in Rain , Thunderstorm Heavy Rain
7:53 PM - - - N/A% 29.99 in 10.0 mi SSE 4.6 mph - 0.35 in   Mostly Cloudy
8:53 PM - - - N/A% 30.01 in 10.0 mi Calm Calm - N/A   Partly Cloudy
9:53 PM - - - N/A% 30.04 in 10.0 mi East 8.1 mph - N/A   Mostly Cloudy
10:53 PM - - - N/A% 30.04 in 10.0 mi East 6.9 mph - N/A   Partly Cloudy
11:53 PM - - - N/A% 30.04 in 10.0 mi ENE 5.8 mph - N/A   Clear